CZ-3B R/B, 43110

Orbit data source: Space-Track

CZ-3B R/B, 43110 is space debris in HEO originally from a launch on Thu, 11 Jan 2018 UTC launched from the Xichang Space Center, China (XSC). Debris objects in space refer to the collection of defunct objects orbiting the Earth. Examples of debris include non-operational satellites, rocket bodies, and fragments generated from explosions, collisions, or faulty payload assembly.

Loading next visibility...
Identifier
43110, 2018-003D
Orbit
HEO
Last TLE update
15 hours ago
Origin
Manufacturer
CALT
Mission
Spacecraft
Bus & Motor
CZ-3A STAGE 3, Unknown motor
Mass
~2,800 kg wet, ~2,800 kg dry
Launch date (UTC)
2018-01-11 (7 years ago)
Launch vehicle
Unknown
Launch site
Xichang Space Center, China (XSC)
Object type
Payload
Rocket body
Debris
Shape & HBR
Cyl + 1 Nozzle, 12.38 m
Radar Cross Section
32.704 m², Large (>1 m²)

Expand to show TLE details & history

TLE from 15 hours ago
0 CZ-3B R/B
1 43110U 18003D   25128.72009738  .00000164  00000-0  22877-3 0  9995
2 43110  54.9988 354.0615 5566157 297.1088  17.3650  4.56660302121477
Epoch: 2025-05-08T17:16Z
Definitive object data (Epoch: 2025-05-08T17:16:56.413Z)
Latitude
-0.00015°
Longitude
-131.94253°
Altitude
2,086.627 km
Speed
8.26 km/s
True Right ascension
23h 36m 18s
True Declination
0° 00' 01"
Sunlit
Object was in daylight at TLE epoch
Visualization TLE readout
Latitude
-24.30428°
Longitude
66.0741°
Altitude
3,956.256 km
Speed
7.156 km/s
Apparent Right ascension
10h 43m 14s
Apparent Declination
-46° 45' 15"
Sunlit
Object is in full shadow
Visualization observer readout
Local Sidereal Time
16:32:08
Azimuth
229.718° WSW
Elevation
-26.229°
Doppler factor
1
Orbital elements
Apogee altitude
17,510.264 km
Perigee altitude
426.203 km
Semi-major axis
15,346.371 km
Eccentricity
0.5566157
Inclination
54.9988°
RAAN
354.0615°
Arg. of periapsis
297.1088°
True anomaly
62.96949°
Mean anomaly
17.365°
Eccentric anomaly
36.20079°
Mean motion
1.14165 °/min
BSTAR
0.00022877
Orbital period
315.33 mins
Loading maneuver chart data...
Loading SW <> Apogee altitude chart data...
Loading historical data...
Loading historical data...
Loading historical data...
Loading historical data...
Loading historical data...
Loading historical data...
Loading historical data...
Other satellites on launch #3 in the year 2018 (2018-01-11 UTC)

CZ-3B R/B Visibility forecast

Observer location: undefined°, undefined°

Span
Click to sort rows by Start time (UTC) header in descending order
Start Az.
Max El. time (UTC)
Max El. Az.
Max El.
End time (UTC)
End Az.
97 mins2025-05-09 14:21:58.819Z141.737° SSE2025-05-09 14:40:58.819Z82.132° E28.374°2025-05-09 15:58:58.819Z40.814° NE
234 mins2025-05-09 19:45:58.819Z263.335° W2025-05-09 20:35:58.819Z351.728° N42.987°2025-05-09 23:39:58.819Z112.015° ESE
207 mins2025-05-10 01:42:58.819Z314.81° NW2025-05-10 03:45:58.819Z279.025° WNW37.104°2025-05-10 05:09:58.819Z210.919° SW
|